Simultaneous Nadir Overpasses (SNOs) Predictions

Prediction of SNOs between GOES-14 and NOAA-20 Satellite Orbit:

Table of predicted SNOs for the next 14.0 days since TLE Epoch: 5/20/2023
Index Date Time (GOES-14) GOES-14 Lat,Lon NOAA-20 Lat,Lon Distance(km) Time Diff (sec)
1 05/21/2023 08:58:56 0.09,-108.52 1.04,-112.77 484.05 80
2 05/22/2023 08:37:31 0.11,-108.53 0.07,-108.23 33.54 80
3 05/24/2023 20:40:42 -0.10,-108.50 -0.22,-109.00 57.01 80
4 05/25/2023 20:24:38 -0.11,-108.51 0.82,-104.47 461.43 80
5 05/27/2023 08:46:25 0.09,-108.58 0.37,-109.73 131.84 80
6 05/28/2023 08:25:01 0.11,-108.59 -0.67,-105.20 386.00 80
7 05/29/2023 20:46:57 -0.08,-108.54 -0.50,-110.50 223.23 80
8 05/30/2023 20:30:52 -0.09,-108.56 0.48,-105.96 295.29 80
9 06/01/2023 08:50:00 0.06,-108.64 0.64,-111.24 296.72 80
10 06/02/2023 08:31:14 0.08,-108.64 -0.34,-106.70 220.81 80
